Location: Arleux
(50.3632°N, 2.8721°E)
Time: 14:13:18
(UTC+00:00)

Cosmos 1743 - Pass Details

Date: 15 December 2019
Orbit: 511 x 527 km, 82.6° (Epoch: 25 January)

Event Time Altitude Azimuth Distance (km) Brightness Sun altitude
Rises 06:20:05 0° 176° (S) 2,614 6.6 -12.2°
Reaches altitude 10° 06:22:14 10° 172° (S) 1,735 5.8 -11.8°
Maximum altitude 06:25:56 53° 96° (E) 643 3.6 -11.3°
Drops below altitude 10° 06:29:41 10° 19° (NNE) 1,757 5.3 -10.7°
Sets 06:31:52 0° 14° (NNE) 2,652 6.2 -10.4°
